This demonstration page uses our WeatherBlox Daily Observations layout. Learn more.

Left ArrowRight Arrow

Hourly Observations for June 21, 2021

Temp ( °F °C ) Dew Point ( °F °C ) Humidity (%) Winds ( mph kmh ) Pressure ( in mb ) Visibility ( mi km ) Precip ( " mm )
12:53 am 00:53 Clear 79 26.1 69 20.6 72 72 SSW 5 7 29.66 1005 10 16 N/A
1:53 am 01:53 Clear 79 26.1 68 20 69 69 VRB 6 9 29.65 1004 10 16 N/A
2:53 am 02:53 Partly Cloudy 79 26.1 69 20.6 72 72 VRB 5 7 29.67 1005 10 16 N/A
3:53 am 03:53 Partly Cloudy 79 26.1 69 20.6 72 72 SW 9 15 29.65 1004 10 16 N/A
4:53 am 04:53 Clear 78 25.6 69 20.6 74 74 VRB 7 11 29.65 1004 10 16 N/A
5:53 am 05:53 Mostly Clear 77 25 69 20.6 77 77 N N/A 29.65 1004 9 14 N/A
6:53 am 06:53 Sunny 78 25.6 70 21.1 76 76 VRB 5 7 29.64 1004 10 16 N/A
7:53 am 07:53 Mostly Sunny 78 25.6 70 21.1 76 76 VRB 5 7 29.65 1004 10 16 N/A
8:53 am 08:53 Partly Cloudy 81 27.2 72 22.2 74 74 SW 12 19 29.66 1004 10 16 N/A
9:53 am 09:53 Mostly Sunny 83 28.3 72 22.2 70 70 SW 10 17 29.67 1005 10 16 N/A
10:53 am 10:53 Mostly Cloudy 84 28.9 70 21.1 63 63 VRB 6 9 29.67 1005 10 16 N/A
11:53 am 11:53 Cloudy 82 27.8 69 20.6 65 65 WSW 9 15 29.69 1005 10 16 N/A
12:53 pm 12:53 Cloudy 82 27.8 67 19.4 60 60 W 12 19 29.68 1005 10 16 N/A
1:53 pm 13:53 Cloudy with Light Rain 79 26.1 69 20.6 72 72 WNW 15 24 29.66 1005 10 16 0.00 0.00
2:53 pm 14:53 Cloudy 79 26.1 69 20.6 72 72 NW 13 20 29.66 1004 10 16 0.00 0.00
3:53 pm 15:53 Cloudy 77 25 67 19.4 71 71 WNW 12 19 29.70 1006 10 16 0.00 0.00
4:53 pm 16:53 Partly Cloudy 78 25.6 65 18.3 64 64 W 5 7 29.70 1006 10 16 N/A
5:53 pm 17:53 Cloudy with Light Rain 75 23.9 63 17.2 66 66 WNW 16 26 29.75 1008 10 16 0.00 0.00
6:53 pm 18:53 Cloudy with Light Rain 72 22.2 61 16.1 68 68 NW 17 28 29.75 1008 10 16 0.00 0.00
7:53 pm 19:53 Mostly Cloudy 70 21.1 59 15 68 68 NW 12 19 29.74 1007 10 16 0.00 0.00
8:53 pm 20:53 Cloudy with Light Rain 68 20 60 15.6 76 76 WNW 7 11 29.80 1009 10 16 0.00 0.00
9:53 pm 21:53 Mostly Cloudy with Light Rain 66 18.9 63 17.2 90 90 WNW 3 6 29.83 1010 9 14 0.01 0.25
10:53 pm 22:53 Cloudy with Light Rain 66 18.9 64 17.8 93 93 N N/A 29.84 1011 9 14 0.01 0.25
11:04 pm 23:04 Cloudy with Light Rain 66 18.9 64 17.8 93 93 N N/A 29.85 1011 9 14 0.00 0.00
11:53 pm 23:53 Cloudy with Light Rain 66 18.9 64 17.8 93 93 N N/A 29.86 1011 10 16 0.01 0.25

Powered by AerisWeather